{"data":{"norad_id":56416,"epoch":"2026-09-20T23:30:56.397024Z","epoch_age_seconds":70688,"freshness":"FRESH","line1":"1 56416U 23061AU  26263.97981941 -.00000067  00000+0  70991-5 0  9995","line2":"2 56416  43.0020 156.9308 0001438 268.4462  91.6225 15.27575902186826","mean_motion":15.27575902,"eccentricity":0.0001438,"inclination_deg":43.002,"raan_deg":156.9308,"arg_perigee_deg":268.4462,"mean_anomaly_deg":91.6225,"bstar":7.0991e-6,"rev_number":18682,"period_min":94.267001601338,"perigee_km":482.07472662816,"apogee_km":484.0480072785,"semimajor_km":6861.1983669533,"source":"CELESTRAK","updated_at":"2026-09-21T09:00:33.437850Z"}}